DW4230 Weather Reports


time (UTC)temp
C
wind
direction
speed
KPH
gust
KPH
rain 1hr
cm
rain 24hr
cm
rain mn
cm
humidity
%
barometer
mb
20260831001528 22 272 11.3 29.0 0.00 0.00 0.00 89 1015.7
20260831000105 22 124 6.4 33.8 0.00 0.00 0.00 89 1015.6
20260830234525 22 277 9.7 33.8 0.00 0.00 0.00 88 1015.4
20260830233101 22 124 9.7 22.5 0.00 0.00 0.00 88 1015.5
20260830231531 22 257 4.8 25.7 0.00 0.00 0.00 88 1015.4
20260830230003 22 124 11.3 30.6 0.00 0.00 0.00 88 1015.4
20260830224542 22 124 11.3 32.2 0.00 0.00 0.00 87 1015.4
20260830223012 22 124 11.3 27.4 0.00 0.00 0.00 87 1015.5
20260830220108 22 275 12.9 32.2 0.00 0.00 0.00 87 1015.6
20260830214532 22 255 8.0 25.7 0.00 0.00 0.00 86 1016.0
20260830213113 22 269 6.4 27.4 0.00 0.00 0.00 85 1015.9
20260830211528 22 124 8.0 24.1 0.00 0.00 0.00 84 1016.0
20260830210108 23 272 9.7 29.0 0.00 0.00 0.00 81 1016.1
20260830204542 23 272 11.3 24.1 0.00 0.00 0.00 82 1016.1
20260830203012 23 255 4.8 24.1 0.00 0.00 0.00 81 1016.0
20260830201547 23 124 11.3 30.6 0.00 0.00 0.00 79 1016.1
20260830200016 24 281 8.0 27.4 0.00 0.00 0.00 77 1016.2
20260830194556 24 124 6.4 20.9 0.00 0.00 0.00 76 1016.4
20260830193030 25 124 9.7 27.4 0.00 0.00 0.00 72 1016.5
20260830191555 25 243 6.4 25.7 0.00 0.00 0.00 71 1016.5
20260830190026 24 273 14.5 25.7 0.00 0.00 0.00 74 1016.8
20260830184608 25 265 9.7 24.1 0.00 0.00 0.00 73 1017.1
20260830183044 24 124 12.9 29.0 0.00 0.00 0.00 76 1017.2
20260830181511 24 258 8.0 30.6 0.00 0.00 0.00 77 1017.4
20260830180056 24 259 6.4 24.1 0.00 0.00 0.00 74 1017.6
20260830174528 24 124 9.7 29.0 0.00 0.00 0.00 76 1017.7
20260830173100 24 261 16.1 30.6 0.00 0.00 0.00 78 1017.7
20260830171524 23 124 16.1 29.0 0.00 0.00 0.00 80 1017.7
20260830170049 24 271 16.1 29.0 0.00 0.00 0.00 80 1017.8
20260830164502 25 257 9.7 20.9 0.00 0.00 0.00 79 1017.7
20260830163039 24 260 9.7 24.1 0.00 0.00 0.00 79 1017.8
20260830161506 24 124 12.9 25.7 0.00 0.00 0.00 81 1017.8
20260830160047 23 287 11.3 24.1 0.00 0.00 0.00 81 1018.3
20260830154512 23 264 8.0 27.4 0.00 0.00 0.00 82 1018.4
20260830153050 23 254 9.7 25.7 0.00 0.00 0.00 83 1018.6
20260830151513 23 124 9.7 25.7 0.00 0.00 0.00 83 1018.7
20260830150113 23 274 11.3 24.1 0.00 0.00 0.00 83 1018.8
20260830144505 23 308 9.7 24.1 0.00 0.00 0.00 82 1018.9
20260830143043 22 124 4.8 25.7 0.00 0.00 0.00 83 1019.1
20260830141506 23 124 8.0 20.9 0.00 0.00 0.00 82 1019.1
20260830140052 23 269 6.4 16.1 0.00 0.00 0.00 79 1019.2
20260830134533 22 124 6.4 14.5 0.00 0.00 0.00 78 1019.3
20260830133055 22 279 8.0 19.3 0.00 0.00 0.00 80 1019.6
20260830131528 22 289 8.0 16.1 0.00 0.00 0.00 82 1019.7
20260830130111 21 124 8.0 16.1 0.00 0.00 0.00 85 1019.8
20260830124524 21 278 6.4 16.1 0.00 0.00 0.00 87 1019.7
20260830123059 20 252 8.0 19.3 0.00 0.00 0.00 87 1019.9
20260830121516 21 320 6.4 20.9 0.00 0.00 0.00 88 1019.8
20260830120058 20 262 3.2 22.5 0.00 0.00 0.00 89 1019.8
20260830114521 20 288 8.0 19.3 0.00 0.00 0.00 89 1019.6
20260830113102 20 273 9.7 22.5 0.00 0.00 0.00 89 1019.5
20260830111531 20 276 8.0 19.3 0.00 0.00 0.00 90 1019.7
20260830110001 20 260 6.4 16.1 0.00 0.00 0.00 90 1019.7
20260830104543 20 264 4.8 16.1 0.00 0.00 0.00 91 1019.7
20260830103006 20 285 6.4 17.7 0.00 0.00 0.00 91 1019.8
20260830101545 20 274 4.8 20.9 0.00 0.00 0.00 90 1019.8
20260830100109 19 292 6.4 17.7 0.00 0.00 0.00 91 1019.9
20260830094529 19 281 4.8 16.1 0.00 0.00 0.00 91 1019.7
20260830093104 19 124 4.8 17.7 0.00 0.00 0.00 91 1019.8
20260830083005 19 283 3.2 11.3 0.00 0.00 0.00 89 1020.5
20260830081542 19 285 4.8 16.1 0.00 0.00 0.00 89 1020.4
20260830080011 19 299 3.2 16.1 0.00 0.00 0.00 90 1020.3
20260830074547 19 275 4.8 16.1 0.00 0.00 0.00 90 1020.2
20260830073010 19 264 3.2 16.1 0.00 0.00 0.00 89 1020.2
20260830071541 19 281 3.2 12.9 0.00 0.00 0.00 88 1020.0
20260830070018 19 276 4.8 12.9 0.00 0.00 0.00 87 1020.1
20260830064556 19 263 3.2 16.1 0.00 0.00 0.00 86 1020.0
20260830063027 19 268 3.2 14.5 0.00 0.00 0.00 85 1020.1
20260830053029 19 289 3.2 14.5 0.00 0.00 0.00 87 1020.0
20260830051613 19 284 3.2 11.3 0.00 0.00 0.00 88 1020.1
20260830050032 19 295 3.2 11.3 0.00 0.00 0.00 88 1020.0
20260830044510 19 288 3.2 12.9 0.00 0.00 0.00 87 1020.2
20260830043038 19 289 3.2 12.9 0.00 0.00 0.00 87 1020.3
20260830041510 19 289 4.8 16.1 0.00 0.00 0.00 87 1020.3
20260830040058 19 293 3.2 12.9 0.00 0.00 0.00 86 1020.1
20260830034532 20 281 3.2 14.5 0.00 0.00 0.00 86 1020.1
20260830033104 20 279 4.8 17.7 0.00 0.00 0.00 85 1020.0
20260830031532 20 279 3.2 17.7 0.00 0.00 0.00 84 1020.1
20260830030144 20 279 8.0 24.1 0.00 0.00 0.00 83 1020.1
20260830024539 20 124 6.4 20.9 0.00 0.00 0.00 82 1020.1
20260830023111 20 284 6.4 17.7 0.00 0.00 0.00 82 1020.1
20260830021543 20 124 3.2 16.1 0.00 0.00 0.00 83 1020.1
20260830020107 20 276 4.8 20.9 0.00 0.00 0.00 83 1020.0
20260830014542 20 276 6.4 19.3 0.00 0.00 0.00 84 1020.1
20260830013111 20 262 8.0 19.3 0.00 0.00 0.00 84 1020.0
20260830011544 20 273 6.4 29.0 0.00 0.00 0.00 82 1020.2
20260830010023 21 283 11.3 24.1 0.00 0.00 0.00 81 1020.0
20260830004521 21 124 4.8 20.9 0.00 0.00 0.00 78 1019.9
20260830003105 20 124 4.8 16.1 0.00 0.00 0.00 80 1019.7